Starlink 30109

operational
NORAD ID: 56298 Int'l Des: 2023-056 Owner: SPXS Country: US Constellation: starlink
LEOCIRCULAR

Über Starlink 30109

Beschreibung wird geladen...

Live-Position

3D-Globus wird geladen...

Nächste Überflüge

Höhenverlauf

Altitude vs Time

uPlot chart will show altitude changes over time

Zweizeiliger Elementsatz

1 56298U 23056N 25352.53510769 -.00000185 00000-0 13581-5 0 9997
2 56298 43.0042 291.3933 0000963 274.2703 85.8029 15.02534418147870
Epoch: 18. Dez. 2025 • Age: 10 hours

Aktueller Status

Höhe 560.1 km
Geschwindigkeit 7.58 km/s
Subsatellitenpunkt -8.41°S, 143.03°W
Startdatum 19. Apr. 2023
Alter 2.6 years
Typ internet

Technische Details

Klassifizierung Payload
Masse 730.00 kg
Trockenmasse 700.00 kg
Gesamtmasse 730.00 kg
Länge 0.30 m
Durchmesser 4.10 m
Spannweite 29.00 m
Form Box + pan
Hersteller SPXS
Bus-Typ Starlink V2M
Phasenstatus In Orbit
Besitzer/Staat SPXS/US

Große Konstellationen

Loading constellations...